EHI
0 0 0 0 0 0 0 0 0 0 0 0 0 0 0 0 0 0 0 0 0 0 0 0 0 0 0 0 0 0 0 0 0 0 0 0 0 0 0 0 0 0 0 0
0 0 0 0 0 0 0 0 0 0 0 0 0 0 0 0 0 0 0 0 0 0 0 0 0 0 0 0 0 0 0 0 0 0 0 0 0 0 0 0 0 0 0 0
0 0 0 0 0 0 0 0 0 0 0 0 0 0 0 0 0 0 0 0 0 0 0 0 0 0 0 0 0 0 0 0 0 0 0 0 0 0 0 0 0 0 0 0
0 0 0 0 0 0 0 0 0 0 0 0 0 0 0 0 0 0 0 0 0 0 0 0 0 0 0 0 0 0 0 0 0 0 0 0 0 0 0 0 0 0 0 0
0 0 0 0 0 0 0 0 0 0 0 0 0 0 0 0 0 0 0 0 0 0 0 0 0 0 0 0 0 0 0 0 0 0 0 0 0 0 0 0 0 0 0 0
0 0 0 0 0 0 0 0 0 0 0 0 0 0 0 0 0 0 0 0 0 0 0 0 0 0 0 0 0 0 0 0 0 0 0 0 0 0 0 0 0 0 0 0
0 0 0 0 0 0 0 0 0 0 0 0 0 0 0 0 0 0 0 0 0 0 0 0 0 0 0 0 0 0 0 0 0 0 0 0 0 0 0 0 0 0 0 0
0 0 0 0 0 0 0 0 0 0 0 0 0 0 0 0 0 0 0 0 0 0 0 0 0 0 0 0 0 0 0 0 0 0 0 0 0 0 0 0 0 0 0 0
0 0 0 0 0 0 0 0 0 0 0 0 0 0 0 0 0 0 0 0 0 0 0 0 0 0 0 0 0 0 0 0 0 0 0 0 0 0 0 0 0 0 0 0
0 0 0 0 0 0 0 0 0 0 0 0 0 0 0 0 0 0 0 0 0 0 0 0 0 0 0 0 0 0 0 0 0 0 0 0 0 0 0 0 0 0 0 0
0 0 0 0 0 0 0 0 0 0 0 0 0 0 0 0 0 0 0 0 0 0 0 0 0 0 0 0 0 0 0 0 0 0 0 0 0 0 0 0 0 0 0 0
0 0 0 0 0 0 0 0 0 0 0 0 0 0 0 0 0 0 0 0 0 0 0 0 0 0 0 0 0 0 0 0 0 0 0 0 0 0 0 0 0 0 0 0
0 0 0 0 0 0 0 0 0 0 0 0 0 0 0 0 0 0 0 0 0 0 0 0 0 0 0 0 0 0 0 0 0 0 0 0 0 0 0 0 0 0 0 0
0 0 0 0 0 0 0 0 0 0 0 0 0 0 0 0 0 0 0 0 0 0 0 0 0 0 0 0 0 0 0 0 0 0 0 0 0 0 0 0 0 0 0 0
0 0 0 0 0 0 0 0 0 0 0 0 0 0 0 0 0 0 0 0 0 0 0 0 0 0 0 0 0 0 0 0 0 0 0 0 0 0 0 0 0 0 0 0
0 0 0 0 0 0 0 0 0 0 0 0 0 0 0 0 0 0 0 0 0 0 0 0 0 0 0 0 0 0 0 0 0 0 0 0 0 0 0 0 0 0 0 0
0 0 0 0 0 0 0 0 0 0 0 0 0 0 0 0 0 0 0 0 0 0 0 0 0 0 0 0 0 0 0 0 0 0 0 0 0 0 0 0 0 0 0 0
0 0 0 0 0 0 0 0 0 0 0 0 0 0 0 0 0 0 0 0 0 0 0 0 0 0 0 0 0 0 0 0 0 0 0 0 0 0 0 0 0 0 0 0
0 0 0 0 0 0 0 0 0 0 0 0 0 0 0 0 0 0 0 0 0 0 0 0 0 0 0 0 0 0 0 0 0 0 0 0 0 0 0 0 0 0 0 0
0 0 0 0 0 0 0 0 0 0 0 0 0 0 0 0 0 0 0 0 0 0 0 0 0 0 0 0 0 0 0 0 0 0 0 0 0 0 0 0 0 0 0 0
0 0 0 0 0 0 0 0 0 0 0 0 0 0 0 0 0 0 0 0 0 0 0 0 0 0 0 0 0 0 0 0 0 0 0 0 0 0 0 0 0 0 0 0
0 0 0 0 0 0 0 0 0 0 0 0 0 0 0 0 0 0 0 0 0 0 0 0 0 0 0 0 0 0 0 0 0 0 0 0 0 0 0 0 0 0 0 0
0 0 0 0 0 0 0 0 0 0 0 0 0 0 0 0 0 0 0 0 0 0 0 0 0 0 0 0 0 0 0 0 0 0 0 0 0 0 0 0 0 0 0 0
0 0 0 0 0 0 0 0 0 0 0 0 0 0 0 0 0 0 0 0 0 0 0 0 0 0 0 0 0 0 0 0 0 0 0 0 0 0 0 0 0 0 0 0
0 0 0 0 0 0 0 0 0 0 0 0 0 0 0 0 0 0 0 0 0 0 0 0 0 0 0 0 0 0 0 0 0 0 0 0 0 0 0 0 0 0 0 0
0 0 0 0 0 0 0 0 0 0 0 0 0 0 0 0 0 0 0 0 0 0 0 0 0 0 0 0 0 0 0 0 0 0 0 0 0 0 0 0 0 0 0 0
Wind_Speed
3 6 9 11 12 10 8 10 12 8 4 8 13 15 12 9 10 11 11 10 10 10 8 8 8 8 8 8 9 8 8 7 6 4 4 3 3 3 2 2 3 3 3 2
5 10 10 6 7 8 9 11 12 6 3 7 10 15 12 10 12 11 11 11 10 9 8 9 9 9 9 9 9 9 8 8 7 5 4 3 3 2 2 2 2 2 2 2
10 3 3 5 6 9 12 13 11 8 3 5 7 12 10 8 8 8 8 9 8 9 10 10 10 10 9 10 10 8 8 8 7 6 4 4 3 3 2 2 2 2 1 2
8 5 4 6 8 8 11 8 8 7 7 6 5 10 8 7 7 7 8 7 8 8 9 9 10 10 10 9 9 9 8 8 7 7 6 6 4 4 3 3 2 2 2 1
5 3 5 7 6 7 5 1 5 7 8 9 7 9 8 4 7 7 7 7 7 8 9 9 9 9 9 9 8 8 8 8 8 7 7 6 5 4 3 3 3 2 2 2
4 2 3 4 2 4 2 1 1 3 5 10 10 10 9 5 5 4 4 5 5 6 7 8 7 7 8 8 8 8 8 8 8 7 7 7 6 5 5 4 4 3 2 2
4 4 2 1 2 3 4 3 3 5 7 8 4 9 8 2 2 3 3 4 4 4 6 7 8 8 8 9 8 8 8 8 8 8 7 7 6 6 6 5 4 3 2 2
5 5 4 3 4 4 7 7 6 7 7 4 4 10 4 1 1 0 1 2 2 3 4 6 7 8 8 8 8 8 8 8 8 7 7 6 6 4 4 4 4 4 3 3
5 5 0 2 3 5 5 7 4 5 5 7 8 6 3 1 0 1 1 1 1 2 3 4 5 6 6 7 8 8 8 7 7 7 6 6 6 5 5 4 4 3 3 2
3 6 3 1 2 3 4 4 4 6 6 9 8 7 4 2 2 1 1 2 1 1 3 3 4 4 5 5 6 6 6 6 6 5 5 4 5 5 4 4 5 4 4 3
3 5 3 3 6 6 4 5 5 5 5 7 8 4 1 2 1 2 2 1 1 1 2 3 3 3 3 3 4 4 5 4 4 4 4 4 4 4 4 4 4 4 4 4
2 4 5 5 2 3 5 6 7 6 6 6 8 4 3 1 2 2 1 0 0 0 1 2 3 3 3 3 3 4 4 4 4 3 4 4 3 3 4 3 4 4 4 4
2 3 4 3 3 2 4 4 5 5 5 7 9 5 3 2 2 1 1 1 0 0 1 2 2 3 2 2 2 2 3 3 3 3 3 3 3 3 3 3 3 4 4 4
3 5 8 10 6 3 5 6 6 7 7 9 11 10 5 4 4 4 2 2 1 1 1 1 2 2 2 2 2 2 2 2 3 2 3 3 3 3 3 3 3 4 4 4
3 6 7 11 9 7 8 9 8 10 10 10 10 10 9 7 6 5 3 2 1 1 1 2 2 1 1 1 1 1 1 2 2 2 2 3 2 2 3 3 3 3 4 4
3 5 5 8 7 7 8 9 9 11 11 12 12 11 7 6 4 3 3 2 2 2 2 2 2 1 1 1 1 1 1 1 2 2 3 2 2 3 3 3 3 3 4 4
4 4 5 7 5 6 8 6 8 6 6 6 10 9 5 5 5 4 3 3 3 4 3 2 2 2 2 2 1 1 1 1 1 2 2 2 2 3 3 3 3 4 4 4
5 5 4 5 5 9 2 2 2 5 5 4 5 6 7 7 7 5 3 3 4 4 3 3 2 2 2 2 1 1 1 1 2 2 2 2 2 2 3 3 4 4 4 4
6 5 4 4 6 7 2 1 1 5 5 2 6 8 7 7 5 2 2 3 4 4 3 3 2 2 2 2 1 1 1 2 2 2 2 2 2 3 3 3 4 4 4 4
1 3 4 4 6 6 2 4 4 3 5 3 5 6 6 4 4 3 5 5 4 4 3 3 2 2 2 1 1 2 2 2 3 3 3 2 3 3 4 4 4 4 4 4
1 3 5 6 7 5 4 5 2 3 4 6 6 6 5 4 5 7 7 6 4 4 3 2 2 1 2 1 1 2 2 3 3 2 2 3 3 3 4 4 3 3 3 4
3 3 4 4 6 4 4 2 1 4 6 6 7 6 6 6 7 7 6 5 4 4 3 2 2 2 2 1 2 3 3 3 2 2 2 3 3 3 3 3 3 3 3 4
2 3 3 3 2 3 1 2 4 4 5 6 6 7 6 7 7 7 6 5 5 4 4 3 2 2 2 2 2 3 3 2 2 2 2 3 3 2 3 3 3 3 3 3
2 2 3 4 4 4 3 4 5 5 6 6 6 6 6 6 7 6 6 5 5 5 4 3 2 3 3 3 3 3 3 2 2 3 2 2 2 3 3 3 3 3 3 4
4 2 3 5 5 5 3 5 6 6 6 6 6 6 5 5 6 6 6 6 5 5 4 3 3 3 4 3 3 3 2 2 3 3 2 2 3 3 3 3 3 4 4 5
2 4 5 5 5 6 6 6 7 6 7 7 7 7 6 5 6 6 6 6 5 5 5 4 4 4 4 4 3 3 3 3 3 3 2 2 2 2 2 3 3 5 6 7
Wind_Direction
183 206 219 220 223 249 254 247 254 256 221 233 244 253 252 229 226 231 227 222 219 216 204 190 187 182 178 177 174 171 168 165 163 164 163 159 152 137 122 108 99 92 86 79
198 229 238 241 233 236 243 250 257 262 237 247 261 262 257 235 228 228 226 223 217 206 194 187 185 183 184 182 180 176 175 174 176 173 170 171 158 149 134 118 112 97 88 80
220 235 216 211 217 230 239 244 254 260 279 240 274 263 236 219 218 224 225 223 213 203 195 188 186 186 185 185 183 180 178 176 178 171 161 151 148 148 152 150 134 113 104 96
238 238 213 218 227 230 250 245 252 253 256 250 241 276 244 219 218 219 220 215 211 204 197 191 187 187 188 186 181 180 179 178 177 174 177 174 176 176 173 170 160 153 146 142
233 220 216 226 236 228 259 275 241 242 252 262 231 257 261 205 229 228 219 213 209 202 197 193 190 188 185 181 179 179 179 180 180 182 184 186 189 183 165 165 168 168 166 173
255 233 236 242 258 214 173 133 176 217 234 250 234 234 261 208 230 235 222 213 205 199 194 192 187 181 179 177 176 177 179 181 182 186 190 195 193 185 178 178 179 180 180 186
248 217 206 206 174 174 202 209 236 226 221 243 190 227 255 233 244 243 238 217 199 191 186 184 184 183 181 180 178 179 182 184 185 189 193 199 199 195 195 191 190 192 197 202
262 249 199 211 224 207 212 222 231 251 255 258 203 236 247 113 66 326 269 236 196 188 186 186 187 187 185 183 183 183 185 189 188 191 195 199 198 198 204 205 202 204 210 213
262 263 130 256 272 218 203 221 254 268 277 263 238 242 247 176 300 312 277 227 210 203 193 188 186 187 186 184 186 187 186 189 190 194 195 198 196 199 203 207 212 215 216 216
269 273 273 289 232 226 248 210 198 224 246 255 249 240 240 218 250 251 236 231 227 212 193 183 180 182 183 181 181 182 185 189 188 190 191 196 197 200 201 208 214 219 220 216
252 255 264 243 222 216 191 203 223 232 250 256 263 246 102 223 237 255 237 210 202 193 184 176 171 166 163 167 171 173 177 178 181 184 186 188 190 194 202 210 218 223 225 223
234 251 258 253 270 296 235 226 212 227 231 236 262 264 69 35 335 309 319 6 122 152 161 162 161 153 150 160 173 176 176 176 179 182 184 183 184 192 206 216 225 229 232 233
207 229 272 257 205 201 237 233 234 250 249 236 245 254 91 44 4 4 352 325 19 114 146 150 154 159 166 169 176 181 175 177 176 180 183 184 191 197 213 227 233 236 237 239
235 231 240 263 289 258 252 247 235 227 236 242 243 262 280 296 305 304 296 286 283 266 206 180 173 172 175 177 178 176 186 182 178 180 187 194 206 214 221 231 237 239 240 242
236 248 249 266 276 265 257 252 232 228 241 252 264 266 282 292 293 294 302 310 303 274 253 227 218 213 197 184 182 181 187 185 181 190 200 208 219 225 228 233 238 243 244 247
251 255 262 266 260 261 266 261 242 240 248 254 266 274 299 300 296 294 294 294 286 283 274 258 248 233 212 204 202 199 204 202 195 199 212 217 222 222 229 238 243 246 247 250
237 237 254 266 283 269 259 253 228 227 239 247 256 273 301 300 295 293 288 282 282 283 285 276 254 237 233 226 221 225 231 230 213 212 216 217 224 227 234 244 247 249 254 256
228 230 245 270 266 246 263 59 205 218 244 245 267 296 306 302 305 306 293 288 289 293 291 282 267 254 248 235 228 233 228 221 217 219 226 227 231 239 242 243 247 253 256 255
232 227 235 244 257 265 256 22 271 242 256 283 274 290 307 330 313 297 1 329 303 299 298 287 276 256 236 226 219 212 222 224 221 227 238 242 237 240 245 246 250 257 259 258
176 227 240 240 256 260 342 354 328 245 250 12 314 304 317 317 290 321 3 335 321 318 315 308 300 268 244 237 218 216 230 234 238 246 254 255 247 241 245 250 254 258 257 259
238 234 236 246 252 266 359 332 303 239 324 355 338 325 313 296 295 314 319 317 314 313 316 313 294 268 257 242 226 234 244 253 264 263 259 257 256 251 247 248 250 250 256 262
263 244 232 239 241 266 16 22 309 326 342 336 329 325 316 307 303 305 311 317 318 319 319 313 298 288 279 248 232 243 253 269 277 266 262 263 263 261 248 242 247 248 248 254
258 279 280 251 275 355 18 343 333 330 318 322 321 322 318 309 307 313 314 316 316 315 312 304 290 290 286 259 242 249 267 277 269 259 263 269 269 262 251 243 243 245 243 246
284 309 267 273 286 310 306 326 328 327 317 313 311 310 310 304 305 310 312 314 315 314 310 300 286 279 283 281 271 265 271 264 252 254 261 264 263 263 257 250 243 243 243 247
304 290 275 270 298 310 309 330 327 327 324 320 318 314 311 306 305 308 309 311 311 309 306 293 279 276 282 287 281 278 267 249 246 254 262 265 261 260 259 258 253 252 250 251
293 275 277 284 304 294 303 326 329 323 323 321 320 322 322 312 301 304 303 303 302 302 303 292 282 281 285 288 285 281 267 248 242 249 254 257 259 261 262 264 272 267 268 269